Theta_e
314 313 313 313 314 318 325 327 325 325 326 324 323 326 326 327 330 330 328 326 324 324 324 325 328 327 323 320 319 318 319 319 318 318 320 322 322 323 321 318 317 318 318 319 319 319 320 322 324 325 325 323 323 323 321 321 319 318 320 321 321 320 319 318 318 317 316 316 316 315 316 320 320 317 317 319 320 321 320 321 323 326 325 323 324 325 330 332
314 313 313 314 314 314 320 326 326 325 327 325 323 325 326 326 328 330 329 326 324 325 325 325 328 327 322 318 317 317 318 319 318 318 320 321 323 326 324 318 316 317 318 319 319 319 320 322 322 324 326 326 325 324 324 323 321 319 319 320 321 320 318 317 316 315 315 315 315 315 315 318 319 317 318 319 321 322 322 323 323 325 326 323 323 324 330 332
315 313 313 314 314 314 316 321 326 326 327 327 323 324 326 326 327 328 329 327 324 325 326 327 328 327 322 317 316 316 316 318 319 318 319 320 320 322 322 320 318 317 318 319 319 320 320 321 321 323 325 325 325 326 325 323 322 319 318 320 320 318 317 315 315 314 314 314 314 315 314 316 318 317 319 320 321 323 321 323 323 326 326 323 323 324 329 331
313 313 313 313 313 314 314 317 323 326 327 328 324 324 325 326 327 327 328 327 325 325 326 327 328 327 324 317 315 315 315 319 320 319 319 319 318 319 321 321 320 319 319 319 319 319 320 320 320 322 324 325 324 325 326 323 321 318 318 320 318 316 316 315 313 313 312 313 314 314 313 315 316 316 318 320 320 321 321 322 322 323 323 322 321 323 328 330
311 311 311 312 312 312 313 313 318 323 327 329 325 325 326 327 327 326 328 327 325 325 327 328 327 327 324 318 315 315 316 320 321 320 319 318 318 319 320 321 321 320 319 319 320 320 320 320 321 323 324 325 324 325 326 322 318 318 317 317 316 315 315 314 312 312 311 312 313 313 314 315 315 315 317 319 319 319 321 320 319 320 320 320 320 321 327 329
310 310 310 311 311 311 312 312 314 319 324 328 327 326 327 328 327 326 328 327 325 326 327 328 327 326 323 318 316 315 318 322 321 321 320 318 319 319 320 319 319 319 319 320 321 321 322 321 323 324 325 325 326 326 324 319 317 321 317 313 314 313 314 313 311 311 311 312 313 314 314 314 314 315 316 317 319 318 319 318 317 319 319 319 320 320 324 327
311 311 309 310 311 311 311 312 312 315 318 325 329 328 327 328 327 327 328 325 325 327 327 327 326 323 319 316 315 316 318 321 321 321 320 318 319 320 319 317 317 317 319 322 322 322 323 322 324 325 325 325 326 326 321 316 316 319 318 314 313 312 312 313 311 312 312 312 313 313 313 314 314 315 314 316 318 318 317 317 317 317 317 319 320 320 321 323
311 310 308 309 310 310 310 311 311 312 314 321 328 329 328 328 328 328 326 324 325 327 327 327 325 320 316 315 316 317 317 319 321 320 320 320 321 320 319 317 316 317 318 321 321 322 323 323 325 324 326 326 326 324 319 318 318 319 319 314 311 312 312 312 312 313 313 313 312 312 313 314 314 314 313 314 316 317 317 317 317 316 317 318 319 320 320 321
311 309 308 308 309 309 310 310 311 312 312 317 325 328 328 328 328 328 324 323 325 326 327 327 323 317 315 315 317 317 317 319 321 320 319 321 322 321 319 317 318 319 319 320 320 322 323 324 324 324 326 326 325 323 320 321 323 322 320 315 313 314 314 314 314 313 313 313 313 313 314 313 313 313 314 315 315 316 316 317 317 317 316 317 318 318 320 321
310 308 307 307 308 308 309 310 310 312 311 314 321 326 327 328 328 328 325 324 325 327 326 325 321 316 315 316 317 318 318 319 320 320 318 320 322 323 322 320 321 322 322 322 322 323 324 324 323 324 326 325 324 323 321 322 321 319 317 315 315 315 314 314 314 313 314 314 313 314 315 313 311 312 316 316 315 316 316 316 317 317 317 316 317 317 318 320
310 309 308 307 307 308 308 309 309 311 311 312 318 323 326 328 328 328 326 324 325 326 326 324 320 315 314 317 319 319 319 320 320 319 317 319 322 323 323 323 324 324 323 324 324 325 325 325 324 325 325 324 323 321 320 322 318 315 314 316 315 315 315 314 313 313 315 316 313 313 314 312 310 312 316 316 315 316 315 316 317 317 317 316 316 317 318 319
309 309 310 308 307 308 308 309 309 310 311 312 316 321 325 327 329 328 327 325 325 326 324 320 317 314 315 318 320 320 319 320 320 319 318 319 322 323 324 325 325 325 325 324 325 325 325 325 325 325 325 324 322 320 321 321 318 316 316 320 319 318 319 315 314 313 314 316 313 313 314 313 313 313 316 316 315 315 315 315 316 316 317 317 316 316 317 318
309 311 311 309 307 308 309 309 310 310 311 312 314 318 323 327 328 328 327 324 324 325 321 316 314 314 317 321 321 319 320 320 320 320 320 320 321 324 325 325 326 326 325 325 325 325 326 325 325 325 324 322 320 319 320 317 318 319 318 320 321 322 322 315 313 312 313 315 312 313 316 316 316 315 315 315 315 315 314 315 315 315 316 316 316 316 316 317
310 311 309 308 307 307 308 309 310 311 311 311 312 316 320 325 328 327 326 324 324 324 318 314 316 317 320 322 321 319 319 319 320 320 321 322 322 324 326 326 326 325 325 325 325 325 326 325 326 324 322 321 319 317 317 316 319 320 319 320 321 324 323 313 311 312 314 314 311 313 316 317 317 317 315 314 314 314 315 316 315 315 315 315 316 316 316 316
309 310 308 307 307 308 308 309 310 311 311 311 312 313 316 323 327 326 326 324 324 322 316 316 318 319 321 321 320 320 319 319 320 320 321 322 323 325 325 325 325 325 325 325 325 325 325 325 325 322 319 318 318 317 317 316 317 318 322 324 321 323 324 317 312 311 313 313 310 313 316 316 317 315 314 313 313 313 315 316 314 315 314 314 315 315 316 316
307 309 308 306 308 310 310 310 309 310 311 310 312 312 313 321 326 326 326 324 324 321 316 317 319 319 321 321 320 320 320 320 319 320 321 321 323 324 325 325 325 325 325 325 325 324 324 324 322 319 316 316 318 319 319 320 318 317 322 326 322 321 323 320 313 308 311 312 310 312 314 315 315 313 311 311 312 312 314 316 314 314 314 314 314 314 315 315
306 308 309 306 308 312 312 311 310 310 311 310 311 312 312 317 324 326 326 324 324 321 317 317 318 318 321 321 320 320 321 321 320 320 321 322 323 324 324 324 324 324 324 324 325 323 323 321 319 318 316 316 318 321 324 325 324 319 320 323 320 319 320 321 316 309 309 311 312 312 312 314 314 313 312 311 311 311 314 316 315 314 314 314 314 314 315 315
306 307 308 307 307 309 311 312 312 310 310 310 311 311 311 314 320 325 325 323 322 319 318 318 317 320 322 321 321 321 321 321 320 320 321 322 324 324 324 324 323 323 322 322 321 320 320 318 318 318 316 317 318 321 326 328 327 322 320 322 320 316 317 320 318 312 310 311 312 313 312 313 314 314 314 312 311 312 314 315 314 314 313 314 314 314 314 314
306 306 308 308 307 306 307 309 311 311 310 310 310 311 312 312 316 321 323 322 321 320 320 320 319 322 323 321 321 321 321 321 321 321 322 323 324 324 323 322 322 321 320 319 317 316 318 316 317 320 318 317 318 322 326 326 326 323 320 322 322 320 318 316 316 311 309 311 312 313 313 313 314 314 315 314 311 312 313 313 313 313 313 313 313 314 314 314
306 305 306 309 308 306 305 305 308 310 310 310 310 311 312 312 312 316 321 322 321 320 320 319 319 321 321 321 321 321 321 321 321 322 322 323 324 323 321 321 320 320 319 319 317 315 317 318 318 320 320 318 319 322 323 322 323 320 319 321 321 322 321 315 313 310 309 312 314 313 313 313 314 314 315 315 311 311 312 313 313 313 313 314 314 314 314 314
305 306 306 308 309 307 305 305 307 308 308 310 310 310 311 311 311 312 317 322 320 319 320 319 319 321 321 321 321 321 322 321 321 322 323 323 323 321 319 319 320 321 321 318 316 314 316 320 320 320 320 319 320 321 321 321 321 319 319 320 319 320 320 314 311 310 308 311 314 311 311 313 313 314 315 314 312 312 313 313 314 314 314 314 314 314 314 314
304 305 306 307 309 308 306 306 309 308 307 308 309 309 310 310 311 311 314 319 320 320 321 320 320 321 321 321 321 321 321 321 320 322 322 321 321 320 318 319 321 320 319 316 315 316 317 320 321 320 320 319 318 319 320 320 320 321 320 320 320 317 317 314 310 309 309 311 313 311 311 313 313 313 314 314 313 313 313 313 314 314 314 314 314 315 315 315
303 304 305 306 308 309 307 308 311 310 307 308 308 309 310 310 311 311 311 314 320 321 321 321 320 320 322 321 321 321 321 320 320 320 320 319 320 320 319 320 321 318 317 316 317 318 319 320 320 319 318 317 317 317 319 320 320 321 320 321 322 316 317 320 313 309 309 309 311 311 311 312 313 313 313 314 314 313 313 313 313 313 314 314 314 314 315 315
303 303 304 305 307 308 309 310 311 309 307 307 308 309 310 310 310 311 309 308 315 320 321 321 320 320 322 321 321 321 321 321 320 319 319 320 320 320 320 320 320 318 317 317 318 319 319 319 319 318 317 316 316 317 318 320 320 319 320 322 321 315 316 319 312 309 310 309 309 311 313 315 315 314 315 315 314 312 312 312 312 313 314 314 314 314 315 316
303 303 303 304 306 307 309 310 307 305 305 305 306 308 309 310 310 311 308 307 312 319 321 321 320 321 321 321 321 321 321 320 320 319 319 320 320 319 319 320 320 318 317 317 319 319 318 317 317 317 316 317 317 317 318 321 321 319 318 320 321 317 315 313 311 312 314 313 310 310 317 321 317 315 315 315 314 313 313 312 312 314 314 315 315 315 316 316
303 303 303 304 305 307 309 309 306 304 305 306 306 307 308 309 310 310 308 310 314 319 322 320 321 322 321 321 321 320 321 320 319 320 319 319 320 320 320 318 317 319 318 317 319 319 315 313 316 317 317 318 318 318 318 320 322 322 319 317 318 318 316 313 313 316 318 317 311 309 316 320 317 315 315 314 313 313 313 313 313 313 313 314 315 316 316 316
304 304 303 303 305 307 308 309 307 305 308 310 309 309 308 308 309 309 309 313 315 318 321 320 320 322 321 321 320 320 322 320 318 318 318 318 319 319 320 317 316 318 317 318 321 318 313 313 316 317 317 318 319 319 318 319 323 323 318 316 316 316 317 316 315 316 316 314 311 310 313 314 314 315 316 314 313 312 313 314 314 313 313 314 315 316 316 316
305 306 304 304 305 307 308 309 308 306 308 310 310 310 311 310 309 309 311 316 317 318 320 319 319 321 320 321 320 320 321 320 318 317 316 317 317 318 319 317 316 317 315 319 323 316 312 315 317 317 318 319 320 320 317 318 322 318 314 315 315 315 317 316 316 315 312 312 314 313 312 314 316 315 314 313 313 314 314 315 315 314 314 314 315 316 316 317
306 306 306 306 306 307 308 308 308 307 307 308 307 308 311 310 309 309 312 317 318 317 318 318 319 320 320 321 320 319 319 319 318 316 315 315 315 315 317 318 317 316 314 317 320 315 312 315 317 317 319 319 319 318 316 319 319 313 312 315 315 314 315 314 314 314 311 312 316 315 313 315 317 317 315 313 312 314 315 315 316 316 315 315 315 315 316 316
305 307 306 307 307 307 308 308 308 308 308 307 306 306 309 309 309 312 315 316 316 316 317 318 318 320 321 321 319 318 318 318 317 315 314 314 313 314 316 317 316 316 315 314 314 312 310 312 315 317 317 316 315 314 316 318 315 312 313 315 314 313 312 312 312 313 313 315 316 315 314 314 317 319 318 316 314 314 316 315 315 315 314 315 315 315 315 315
304 306 306 307 307 307 308 308 308 308 308 308 306 305 307 308 310 314 315 315 315 315 316 318 318 320 321 320 319 319 318 316 315 315 314 313 312 314 316 316 316 317 317 315 313 309 309 312 314 313 312 314 314 313 313 312 311 312 314 315 316 313 312 313 312 312 317 320 315 311 310 312 316 318 316 315 312 312 314 314 315 315 315 315 315 315 315 315
302 305 306 306 306 307 308 308 309 309 309 309 307 306 308 310 311 315 316 315 316 315 315 318 319 320 320 320 319 319 319 317 315 315 315 314 312 314 317 317 316 319 320 319 314 310 310 312 311 310 310 313 316 315 312 310 311 313 313 315 319 316 316 319 316 314 318 318 311 307 308 311 315 316 314 314 313 312 313 312 314 315 314 314 314 314 314 313
300 303 305 306 306 306 307 308 309 309 310 309 307 307 309 311 313 315 315 314 315 315 315 317 320 320 320 321 319 319 319 318 316 315 315 314 314 315 317 316 316 320 322 319 314 312 312 311 309 311 311 312 316 317 314 311 311 312 313 317 320 318 322 325 320 317 319 315 308 306 309 313 315 315 314 314 315 314 313 312 312 312 312 312 312 312 313 313
300 300 303 305 306 305 305 307 308 309 310 308 307 308 310 312 314 315 314 312 314 315 315 318 320 320 321 321 319 318 319 318 316 317 316 315 316 317 317 316 315 318 318 316 314 315 317 315 312 312 312 312 315 316 316 314 311 313 315 318 320 319 324 327 323 321 320 314 308 307 312 317 317 315 312 311 312 311 312 312 311 311 311 311 312 313 314 314
300 299 300 303 305 305 304 305 307 308 309 308 307 308 311 313 314 314 313 311 313 315 316 318 320 321 322 319 318 318 318 318 317 318 317 315 316 318 317 316 316 317 317 317 316 316 319 316 310 310 310 311 314 315 314 315 314 314 313 315 318 318 318 318 317 316 315 314 312 310 312 315 314 313 312 312 311 310 310 311 309 310 311 311 312 313 313 314
299 298 298 299 303 305 304 305 306 307 308 309 309 309 311 313 312 313 313 312 314 316 316 318 320 322 321 318 318 318 316 317 319 318 317 316 316 318 317 316 316 316 317 319 316 316 320 315 308 308 309 310 313 312 313 316 316 314 312 313 315 314 313 313 312 309 311 317 317 312 312 313 313 315 314 313 313 311 311 310 308 309 311 311 311 312 312 312
299 298 298 297 299 303 305 305 307 308 307 308 309 309 310 310 309 310 312 313 314 316 316 319 320 320 319 318 318 318 317 317 318 318 318 317 317 317 317 317 316 316 317 317 315 315 318 313 307 308 310 309 309 311 312 313 313 314 314 313 313 312 312 313 313 311 312 318 318 312 312 314 315 317 315 311 312 312 312 312 310 309 310 310 311 312 311 311
298 298 298 297 297 301 303 305 306 308 307 307 308 308 308 309 308 309 311 312 314 316 317 318 318 317 317 318 318 317 318 319 319 319 318 317 318 318 317 317 317 316 316 316 316 315 315 313 308 308 309 308 307 311 313 310 309 312 314 313 314 316 315 313 313 314 315 317 316 312 311 312 314 316 314 311 311 312 313 313 312 311 310 310 311 311 311 310
298 298 298 297 297 299 301 304 306 307 307 307 307 307 307 308 308 309 310 311 314 316 317 318 317 315 315 317 317 317 319 319 318 319 319 318 319 318 316 317 316 316 314 314 315 314 313 314 311 307 308 309 308 311 314 312 309 309 311 312 312 314 315 314 313 314 316 317 316 315 312 312 313 314 314 315 314 314 315 314 314 314 313 311 310 311 310 310
298 299 299 298 297 298 300 303 305 306 306 306 306 308 308 308 308 309 310 311 313 315 316 317 316 315 314 316 317 318 319 319 318 319 319 318 317 316 316 316 316 316 314 312 313 314 312 313 312 308 307 309 310 311 314 313 311 310 312 313 312 311 312 314 313 312 314 316 315 315 316 316 313 312 313 315 315 315 316 315 316 317 313 311 310 310 311 311
298 300 300 299 298 298 301 303 304 305 306 306 306 307 309 309 309 309 310 310 312 313 314 315 316 316 315 315 317 319 320 318 318 319 319 317 317 316 317 316 316 315 312 310 312 313 312 312 312 309 308 310 311 311 312 313 312 312 313 314 314 312 311 315 317 311 310 313 312 312 315 316 313 311 311 313 314 315 315 315 316 314 311 310 310 310 311 311
299 299 300 300 299 299 302 303 304 305 305 306 306 306 308 309 309 310 310 311 312 312 311 313 315 316 316 316 317 319 320 318 318 319 319 318 317 315 316 316 315 314 312 312 313 311 310 311 311 309 310 310 309 307 306 309 313 313 312 313 315 314 313 317 319 312 309 310 310 309 313 315 314 313 311 311 313 313 311 311 312 311 309 310 310 310 310 311
299 300 300 300 300 301 303 303 304 305 305 305 306 306 308 309 309 309 310 311 311 311 310 312 314 315 315 316 317 319 320 318 318 318 318 318 316 313 315 316 314 312 312 313 312 310 310 312 311 310 310 309 308 306 305 307 311 312 311 311 312 314 314 314 313 312 311 312 311 312 315 316 314 313 311 309 309 308 307 307 307 308 309 309 311 310 310 311
299 300 301 301 301 302 304 304 304 304 304 305 305 306 307 308 309 309 309 310 311 311 310 312 314 315 316 317 317 318 319 319 319 318 317 318 315 312 314 315 314 313 312 313 313 312 313 313 312 311 311 311 310 309 309 308 308 310 311 310 310 313 313 310 309 310 312 314 313 315 318 316 312 311 309 307 307 308 307 306 307 308 309 310 310 310 310 310
299 299 300 301 302 303 304 304 304 304 304 305 305 305 306 307 309 309 309 310 310 310 311 312 314 315 315 316 317 318 319 320 319 317 316 315 311 310 313 313 313 313 313 313 313 312 313 314 313 313 313 313 313 312 312 311 309 309 311 310 310 312 312 311 311 311 313 315 314 315 318 314 310 309 309 308 308 309 308 307 307 309 310 310 310 310 311 310
299 299 299 300 301 302 303 304 304 304 304 304 305 305 306 307 308 309 310 310 310 310 311 312 314 315 315 316 317 318 318 318 318 316 315 314 310 309 311 313 313 314 312 311 311 312 314 313 313 315 315 314 315 315 314 313 311 310 311 311 311 312 312 313 313 313 314 314 314 315 316 314 311 309 309 309 309 310 310 308 308 309 309 310 310 310 310 310
299 299 300 300 300 301 302 304 304 304 304 305 305 305 306 306 307 308 310 310 310 310 311 311 313 314 315 315 315 318 318 316 316 316 315 312 309 308 310 312 313 313 311 310 310 313 315 314 313 316 316 315 316 316 315 313 312 311 312 312 312 312 312 313 314 314 314 314 314 315 315 315 314 310 310 311 311 312 311 308 308 310 310 310 311 311 311 311
298 299 300 301 301 301 302 303 304 304 304 305 305 305 306 306 307 308 310 310 310 311 312 312 312 313 315 315 315 317 317 315 315 316 313 310 310 309 309 311 312 311 311 310 311 313 315 315 314 315 315 314 313 313 314 313 312 312 312 312 312 312 312 313 314 314 314 314 315 317 316 315 314 311 311 312 313 312 311 309 309 311 310 310 312 311 311 311
298 299 300 300 302 302 302 303 304 304 305 305 305 305 306 306 306 307 309 310 310 311 312 312 312 312 313 315 316 316 316 315 316 316 312 310 311 310 309 311 311 310 310 311 311 312 314 315 315 313 312 312 311 311 313 314 313 312 312 312 312 312 312 312 312 313 314 314 315 316 317 315 314 312 312 312 311 310 309 308 308 309 309 310 311 312 312 312
298 298 300 301 302 302 302 303 304 304 304 305 305 305 306 306 306 306 308 310 310 311 312 312 312 313 313 314 316 317 316 316 316 315 313 311 311 311 311 312 311 310 311 312 311 311 313 314 313 311 311 310 309 310 312 314 313 313 313 313 312 312 312 312 312 313 314 314 313 314 315 314 313 313 312 311 310 309 309 309 309 309 311 311 311 311 311 311
297 298 299 300 301 301 302 303 304 304 304 304 305 306 306 306 306 306 307 309 310 311 312 312 312 313 314 314 315 316 316 315 316 315 313 313 313 312 312 312 311 310 311 312 311 311 311 312 311 311 311 310 308 309 310 311 312 312 312 313 312 312 312 312 312 312 313 313 314 314 314 313 313 313 312 311 310 310 310 311 311 311 312 312 311 311 311 311
297 297 298 299 300 300 301 302 303 304 304 304 305 306 306 306 306 306 307 308 310 311 311 312 312 313 314 314 314 316 316 315 316 315 313 313 312 312 312 312 311 311 311 311 311 311 311 310 310 312 313 311 308 308 310 311 311 311 312 312 312 312 312 311 312 312 312 313 314 314 314 313 312 312 311 310 310 311 311 311 311 311 311 312 312 311 312 312
Wind_Speed
35 37 38 40 37 29 36 48 48 45 46 48 47 46 47 45 41 41 40 37 34 32 31 30 30 29 28 27 25 23 22 22 22 23 25 30 31 30 28 22 20 21 20 21 20 19 22 24 22 18 17 11 7 5 2 4 8 3 1 2 3 2 1 1 2 2 1 3 4 0 7 8 4 7 8 5 7 7 7 11 10 12 14 10 7 7 16 23
31 33 34 33 34 32 30 42 48 46 44 47 47 46 46 46 44 41 38 37 35 34 33 31 31 30 28 27 25 23 21 19 19 23 23 22 21 25 28 25 22 22 21 22 21 21 22 24 22 16 14 10 7 7 7 2 5 3 0 2 2 2 3 1 2 2 1 3 6 2 6 8 4 5 9 6 6 8 7 10 11 11 13 13 10 9 18 25
30 30 31 31 31 31 26 30 45 47 44 46 48 46 46 47 46 41 38 38 37 35 34 33 32 31 29 27 25 23 22 19 20 25 23 20 20 22 26 26 26 25 22 21 21 20 19 19 19 16 15 12 8 7 6 4 2 2 1 3 2 3 3 3 2 1 1 3 5 3 3 8 7 5 8 7 4 7 10 10 11 12 14 16 12 12 20 26
31 29 29 29 29 30 26 23 35 45 44 45 48 46 46 47 46 42 40 39 37 35 35 35 34 33 31 29 27 25 23 17 20 28 24 23 25 24 25 26 27 25 23 21 19 18 17 17 19 21 18 11 9 8 6 5 3 1 2 2 3 3 2 4 2 0 1 3 3 2 1 5 7 9 9 6 5 7 13 15 14 15 16 17 16 15 22 26
34 32 32 32 30 30 33 26 22 33 41 43 46 46 45 47 46 43 43 41 38 36 36 36 36 35 33 32 29 27 24 11 16 30 27 24 26 26 25 25 26 24 24 24 20 17 17 19 22 22 16 8 9 8 6 8 5 3 2 2 3 3 1 3 1 1 2 3 1 1 2 3 4 10 11 10 9 6 8 14 15 15 15 16 17 17 22 27
29 29 31 34 34 33 36 33 23 23 32 41 45 46 46 46 46 45 45 43 39 37 37 37 37 36 35 34 30 29 24 6 10 29 29 26 26 25 25 25 28 26 25 24 21 19 18 21 21 17 10 5 8 6 6 10 8 5 2 1 2 2 1 1 1 4 4 3 2 1 3 4 4 7 10 16 18 10 6 9 10 12 15 16 17 18 21 26
24 25 24 27 33 35 35 35 31 23 20 33 43 43 46 46 47 47 46 44 40 38 38 39 39 38 36 34 30 28 24 5 5 27 31 28 27 25 26 26 29 28 25 23 22 21 21 23 19 16 11 4 6 5 6 10 7 5 2 2 3 3 3 3 4 6 5 4 4 3 4 4 5 5 7 17 23 19 14 9 5 7 12 16 19 18 19 22
27 27 21 21 26 31 33 33 33 28 19 24 40 42 43 47 47 46 46 44 42 39 39 41 40 40 38 36 32 24 25 11 4 27 34 29 28 26 28 28 28 27 26 24 23 21 21 22 18 16 10 4 6 5 6 7 4 7 5 3 4 3 5 6 7 6 5 4 5 5 5 4 7 7 8 16 20 20 21 16 9 5 7 15 20 20 20 21
26 23 20 19 21 24 29 31 31 31 22 18 35 42 40 47 47 44 46 43 42 41 40 43 41 42 39 37 32 18 27 20 8 29 37 30 30 28 28 29 27 25 26 25 24 23 19 20 20 16 8 7 10 7 9 8 3 8 6 4 3 4 6 8 7 4 5 4 4 5 5 4 6 7 11 16 17 18 19 20 18 12 7 11 17 21 21 22
22 20 20 19 22 24 26 30 31 31 24 16 28 39 37 45 50 44 45 43 42 42 41 44 42 43 39 36 27 13 26 24 11 32 40 33 33 30 29 28 28 25 24 24 23 23 21 20 22 16 8 10 12 8 10 7 1 5 4 2 4 6 7 8 6 5 6 5 4 6 4 2 4 4 6 6 8 15 18 19 20 17 12 11 14 19 21 22
24 22 23 22 22 25 27 29 31 31 28 19 20 33 33 41 52 47 44 42 42 42 42 45 44 44 39 35 26 13 25 23 12 32 38 34 33 29 30 27 26 26 24 24 21 21 20 18 21 15 6 9 11 8 9 7 2 5 2 3 4 5 7 8 7 7 7 5 4 5 5 2 4 5 7 4 2 7 14 18 18 19 17 14 13 17 20 22
25 26 26 25 22 23 26 27 30 33 32 25 17 24 30 36 48 49 44 42 43 42 43 45 43 44 39 31 24 18 28 23 15 31 35 33 34 29 28 26 25 24 23 25 22 19 16 15 18 11 5 10 10 5 7 8 5 3 0 3 3 4 7 6 5 6 5 5 2 2 6 7 8 9 10 10 8 6 9 13 15 17 19 18 16 16 19 21
25 27 27 25 21 21 25 26 29 33 34 32 22 18 24 34 45 47 44 42 43 43 44 45 42 44 38 25 22 23 30 26 16 27 34 32 33 29 27 26 24 22 20 21 21 19 15 13 13 9 10 12 8 5 6 7 4 3 1 2 2 4 5 2 2 4 5 5 4 4 6 7 9 12 12 10 11 9 9 12 13 14 16 18 19 18 19 20
24 25 26 23 18 17 23 26 27 32 34 33 28 18 15 30 45 45 44 44 44 45 44 44 42 42 33 20 23 26 29 30 20 22 32 33 32 30 27 25 23 21 19 18 18 17 15 13 11 10 12 11 10 9 8 6 2 3 3 0 2 3 2 1 0 4 5 4 8 6 7 8 5 7 11 13 13 11 10 12 13 14 14 17 19 21 21 20
25 22 24 21 16 16 18 22 27 32 32 31 32 26 14 24 44 45 43 45 45 47 45 43 42 38 25 16 24 27 26 30 25 22 28 31 33 32 29 27 24 22 19 16 17 17 16 15 13 12 11 12 14 11 5 3 2 2 2 3 2 3 2 1 1 3 2 3 8 7 6 7 6 4 6 12 15 14 12 11 13 14 14 16 18 21 22 21
27 22 21 19 18 18 17 19 25 31 33 32 33 31 19 17 42 49 43 46 46 46 47 42 41 35 19 11 22 26 25 30 28 24 24 28 34 34 31 28 25 23 18 16 18 18 17 15 14 15 12 11 10 7 4 3 2 2 4 3 4 4 2 1 0 1 1 2 7 9 4 3 3 2 4 6 12 15 14 12 14 16 15 16 18 20 22 22
28 25 21 20 20 20 20 20 23 29 31 31 31 33 26 13 33 49 46 45 46 48 49 44 42 32 13 10 22 28 29 31 31 28 24 26 32 34 33 30 26 24 21 19 17 18 18 15 13 11 8 5 5 6 6 5 5 4 4 3 3 4 3 2 2 2 1 2 6 8 7 8 7 4 3 1 6 10 12 12 14 17 17 18 18 19 20 22
26 26 23 22 22 21 23 21 21 25 27 28 27 28 30 17 22 43 50 47 45 47 41 39 40 22 9 19 28 34 36 33 33 31 26 26 30 32 33 30 28 26 22 18 15 16 16 13 9 6 4 4 5 7 7 7 8 7 6 4 3 5 4 4 3 1 2 2 5 7 9 13 13 13 12 6 6 7 9 10 12 14 17 18 20 21 20 21
25 27 25 23 24 22 22 23 22 23 23 26 25 22 25 20 13 30 53 54 44 35 22 31 41 15 11 32 34 37 40 34 33 32 29 30 30 31 30 28 29 27 20 13 10 14 13 8 6 6 5 7 8 10 11 6 6 8 8 5 4 5 4 4 3 1 0 2 6 8 10 13 13 15 17 12 10 10 11 13 15 15 15 16 18 21 22 23
23 26 26 23 24 23 19 21 25 27 27 25 26 22 16 12 5 9 38 58 51 40 30 45 50 15 12 35 35 36 38 32 34 35 33 34 33 32 30 28 26 21 14 10 8 12 13 7 6 8 9 12 15 16 11 3 3 7 7 5 4 5 4 3 3 3 0 3 6 7 9 14 14 13 16 12 8 10 12 14 17 19 19 18 17 18 20 21
23 24 26 22 23 25 19 17 24 28 29 28 27 21 13 12 7 7 14 44 53 41 29 48 49 12 14 36 39 43 40 29 32 36 33 33 34 29 26 25 18 10 9 13 12 9 11 8 8 11 13 16 17 15 9 5 6 7 6 5 4 5 3 2 2 2 2 3 4 3 6 13 13 12 16 13 8 11 15 14 16 18 20 21 20 20 19 17
23 24 24 22 22 25 21 17 22 23 23 27 28 23 19 20 19 9 6 14 40 34 19 43 43 12 21 36 40 49 40 23 25 35 35 34 31 23 20 18 10 6 8 12 11 7 7 7 9 12 11 11 10 10 10 9 9 7 5 4 4 3 1 1 2 2 2 3 3 1 5 11 12 13 14 14 12 15 18 18 18 18 18 22 23 22 21 18
22 23 23 23 21 23 23 19 23 24 21 25 27 26 24 23 26 21 12 7 23 30 25 42 35 18 30 35 40 51 38 22 23 32 37 35 28 23 20 14 7 9 10 9 8 8 5 6 12 14 10 10 9 11 12 9 8 6 5 6 4 4 3 3 3 2 2 2 4 4 6 9 10 11 12 15 17 17 19 21 23 22 21 24 25 24 22 21
19 21 22 22 21 22 25 23 25 24 20 22 25 26 24 22 24 22 8 8 5 20 31 42 33 26 35 35 42 48 36 29 29 33 40 36 27 23 21 16 11 9 9 10 10 8 4 6 14 14 12 13 10 11 12 8 6 5 6 7 4 6 6 2 2 0 2 2 2 4 8 10 10 12 12 11 13 14 17 18 21 25 26 25 25 25 24 23
17 19 20 22 21 22 23 24 22 16 15 17 20 24 24 20 21 19 7 4 5 12 27 34 29 27 33 35 39 39 31 27 29 38 43 36 30 24 18 17 12 8 12 13 10 7 4 9 16 13 11 14 11 10 12 9 6 5 7 9 8 8 7 2 3 1 3 3 1 2 7 8 5 9 9 5 6 10 11 12 16 22 25 25 25 25 25 24
17 17 19 21 21 23 23 23 20 15 15 18 18 22 23 20 23 21 8 4 3 8 18 26 25 27 32 33 38 39 26 16 24 41 42 32 32 27 17 12 6 8 16 12 6 3 2 7 12 12 12 14 11 10 12 11 7 4 7 9 9 8 7 4 3 2 4 3 1 1 5 7 3 5 7 3 4 8 9 8 12 17 21 24 26 25 25 25
17 17 19 21 21 24 24 23 23 20 19 21 21 21 20 20 22 18 6 2 3 5 12 20 22 28 33 37 45 33 14 17 25 36 39 30 29 26 17 11 4 8 15 9 4 2 4 8 9 10 12 11 11 10 10 12 9 2 4 9 8 7 8 6 3 3 2 3 1 1 2 7 8 6 5 4 4 8 10 9 9 14 22 26 27 28 27 27
18 18 19 22 22 24 24 24 27 26 22 22 23 19 17 20 21 15 6 2 2 5 7 11 16 30 40 44 43 22 18 32 22 21 37 31 24 21 14 12 10 13 13 8 5 1 4 11 13 13 12 10 10 9 11 13 7 0 3 8 8 6 5 4 2 2 1 3 4 2 3 5 9 5 2 3 6 10 12 13 11 13 22 26 27 30 30 30
19 20 20 23 24 24 23 24 27 28 24 23 23 18 18 22 20 13 3 3 2 2 4 10 16 28 38 37 28 20 27 28 14 19 34 25 18 13 7 13 18 16 9 3 3 2 2 9 15 15 11 8 6 7 12 13 4 3 6 6 5 4 4 2 2 1 2 3 7 4 5 5 9 7 5 4 6 10 11 11 11 13 21 24 23 26 27 28
19 21 22 23 24 24 22 22 27 27 24 22 22 21 19 18 13 6 3 3 2 1 3 10 14 23 33 24 13 18 21 13 18 30 24 15 17 12 11 15 16 13 5 3 4 3 2 5 11 8 5 6 8 6 6 9 8 9 8 7 7 4 3 2 0 2 1 5 5 6 8 6 7 6 6 5 4 7 10 10 10 11 19 25 24 23 23 24
17 20 22 23 23 23 21 22 26 26 26 24 22 25 21 10 3 2 3 3 2 1 3 7 12 20 27 20 10 17 16 10 22 26 13 10 14 13 16 13 7 7 5 3 4 2 4 6 6 2 5 10 11 5 3 6 13 10 6 6 6 3 2 1 1 1 4 5 2 4 4 6 9 4 1 2 3 4 8 10 12 12 16 24 26 25 25 24
16 18 21 22 22 23 20 20 25 26 30 32 29 27 18 5 3 4 3 4 2 4 4 4 11 16 22 20 13 15 15 13 20 20 13 12 8 10 13 9 8 7 7 9 7 4 4 3 0 2 7 11 11 8 3 4 7 5 5 7 5 3 2 3 3 2 6 4 2 2 1 5 10 5 5 8 7 8 9 11 14 12 14 21 22 21 21 20
15 17 20 21 21 23 21 19 21 23 30 37 33 22 9 2 5 4 3 4 1 2 4 5 11 17 21 18 12 13 13 13 18 17 14 12 9 9 6 7 10 3 5 11 8 6 4 2 1 4 5 9 11 10 7 5 5 5 7 8 6 5 5 7 6 4 5 3 2 2 1 5 7 4 8 12 10 10 11 16 20 17 17 20 20 19 19 19
14 16 18 19 19 22 23 20 19 19 28 38 28 12 5 5 5 4 4 4 0 3 5 8 12 17 19 14 13 16 11 10 18 17 14 11 9 9 5 9 14 3 5 9 5 8 8 1 7 8 6 10 12 9 10 10 8 9 8 6 5 4 5 6 5 5 3 2 2 3 2 5 2 2 3 8 10 13 14 17 20 20 23 24 23 25 25 25
12 15 17 18 18 22 23 23 20 16 25 32 17 4 6 5 3 4 5 4 1 4 8 10 13 16 13 9 13 14 4 8 20 16 13 12 9 12 10 10 16 10 9 9 4 8 10 3 2 2 5 12 11 7 11 13 9 7 4 3 5 3 1 1 0 1 2 1 3 5 3 4 2 5 10 9 8 14 18 17 17 19 21 22 23 25 23 22
9 13 15 17 19 21 23 24 20 17 21 19 6 3 5 1 1 3 5 5 4 8 11 11 13 13 9 6 11 11 3 6 19 14 9 11 9 13 12 8 13 12 10 10 4 5 10 4 3 3 4 9 9 8 11 12 7 4 4 5 3 0 2 2 1 3 2 3 4 4 4 4 3 8 11 9 7 10 12 12 11 13 15 15 18 19 17 16
9 10 13 17 19 20 23 24 20 18 19 12 3 4 2 1 1 2 2 3 4 9 11 10 9 7 6 5 8 12 9 8 14 11 8 9 8 12 13 10 15 16 13 10 3 2 6 4 2 1 4 5 6 11 10 7 4 5 6 6 4 2 2 1 2 2 3 6 3 3 6 6 4 5 3 4 8 10 10 8 7 9 10 11 12 12 12 13
9 9 10 16 19 19 21 23 20 19 16 8 6 7 1 1 4 3 2 1 4 8 8 6 4 2 5 6 7 13 17 13 10 10 9 8 8 13 15 12 17 21 16 10 4 3 6 5 2 1 2 3 4 8 9 6 3 2 3 6 5 2 4 4 3 3 5 6 3 2 5 6 7 6 2 3 6 6 8 8 7 8 8 10 11 10 11 12
8 6 5 12 20 20 20 21 21 17 10 5 8 7 3 3 5 5 3 2 1 6 7 6 3 1 3 7 10 15 18 16 13 11 10 8 7 15 20 13 13 21 19 10 5 5 5 4 3 1 0 3 3 6 9 8 4 1 1 6 2 2 3 4 2 2 4 5 4 2 2 3 6 8 9 12 11 8 8 7 7 7 7 9 11 11 12 12
7 5 2 8 18 21 20 20 18 13 6 5 7 5 3 4 5 9 10 5 1 1 5 4 2 4 4 6 10 13 13 15 16 11 8 9 7 12 20 15 12 20 20 8 5 7 4 2 5 4 1 5 7 6 8 11 9 5 6 8 6 2 1 1 2 1 1 4 3 3 4 3 3 5 10 15 14 13 11 9 8 6 5 6 8 10 12 10
8 4 1 5 16 23 24 18 11 7 4 4 5 5 3 4 4 8 12 11 4 2 1 1 1 4 6 7 9 10 9 12 13 9 6 10 8 6 18 21 16 19 15 6 6 8 3 3 7 7 6 7 5 1 1 6 9 9 9 9 10 8 4 5 6 3 1 3 2 2 5 4 4 4 7 11 10 10 10 8 8 8 7 7 8 9 9 7
8 3 0 5 17 29 26 12 5 6 4 5 8 8 6 6 5 7 9 11 8 1 4 2 1 2 4 8 8 8 9 10 12 10 7 12 12 6 16 25 23 23 16 6 6 4 2 4 6 5 5 4 1 2 1 1 3 5 5 7 10 9 8 8 6 4 4 2 1 1 5 4 6 5 6 7 6 7 8 7 7 9 10 9 7 6 5 4
8 4 3 7 21 34 24 6 4 6 3 6 9 10 8 4 3 7 8 8 6 2 1 2 3 4 3 5 8 9 11 10 12 13 8 10 9 6 18 29 26 22 14 6 6 5 4 5 5 5 2 1 2 1 2 3 0 5 7 6 7 8 7 3 1 3 5 4 3 2 6 5 4 3 4 5 7 9 8 6 7 9 11 10 7 4 3 1
10 7 4 8 24 32 17 3 7 8 6 6 6 8 9 5 3 7 8 8 6 4 2 4 5 6 2 3 8 11 11 9 10 11 6 6 6 10 24 33 27 20 13 9 12 10 5 4 6 7 5 2 3 3 3 4 5 7 6 4 6 8 5 1 1 1 3 6 8 5 8 5 2 2 2 4 7 7 5 5 7 8 9 9 7 4 3 4
11 7 4 10 27 30 12 4 9 8 8 9 7 9 10 5 7 11 9 9 9 7 4 4 6 6 3 3 7 12 12 6 6 8 4 4 3 8 25 35 30 23 15 13 17 13 5 5 7 8 8 9 9 7 6 7 6 4 3 6 10 12 10 6 2 3 6 7 10 11 8 1 4 2 2 4 5 5 3 3 5 8 8 8 7 6 5 6
10 6 3 8 21 22 12 8 9 6 7 9 6 8 11 7 8 14 14 11 11 11 7 4 4 5 7 8 7 11 12 1 3 6 6 6 2 3 22 35 32 26 18 17 23 15 3 4 9 10 11 10 7 4 5 9 9 7 8 11 12 12 13 9 5 7 8 4 9 13 6 2 2 5 4 4 4 5 3 5 5 6 6 6 6 7 7 8
8 5 6 7 9 11 8 7 8 6 7 11 7 6 12 12 7 9 12 11 12 15 10 6 6 5 8 12 8 10 13 2 3 10 8 6 3 2 18 29 27 26 20 19 24 15 2 7 14 14 11 3 1 4 10 12 13 14 13 13 14 13 13 11 12 14 7 4 9 10 6 9 8 9 7 5 5 5 4 5 6 6 5 6 6 7 8 8
8 5 11 15 7 4 8 9 10 9 11 13 9 7 13 16 10 8 10 10 11 15 10 7 11 12 11 14 10 8 9 3 3 11 9 5 5 6 12 15 17 25 21 13 17 12 3 10 15 11 6 1 4 4 12 14 13 15 17 17 17 17 16 15 19 18 10 8 13 5 10 15 13 11 9 6 6 7 5 6 8 8 9 8 6 9 11 8
10 5 11 17 9 6 14 18 16 13 13 13 9 8 12 15 15 13 10 7 9 14 12 8 12 16 14 12 10 9 11 7 6 11 10 11 13 11 11 9 12 22 21 10 10 10 5 8 11 9 5 2 3 2 8 12 12 13 18 20 19 18 18 19 22 19 13 14 16 4 6 15 12 11 10 9 12 12 7 7 9 9 9 7 8 14 16 14
13 8 9 12 9 8 14 17 14 12 13 13 10 10 12 14 19 17 11 10 9 10 14 13 13 16 16 14 12 13 16 17 16 18 17 15 14 13 13 11 11 17 18 10 8 10 9 6 8 9 4 1 2 0 3 6 9 11 14 14 15 16 19 21 21 15 11 15 19 12 12 16 9 12 12 15 18 13 11 14 16 15 17 17 17 20 21 21
18 17 12 7 6 8 9 9 9 10 11 11 11 12 11 14 20 18 13 17 17 13 17 20 18 14 14 17 19 18 22 24 21 23 26 23 20 17 11 10 13 15 14 11 9 10 8 4 6 7 6 3 2 3 5 5 5 6 8 12 18 20 17 16 14 11 13 19 21 17 17 13 7 12 11 13 14 12 17 23 23 24 27 26 25 25 25 26
19 20 16 9 7 9 9 6 8 10 9 10 12 14 14 16 21 19 13 14 20 21 23 25 21 12 9 18 27 28 28 23 15 17 23 20 19 17 12 16 21 18 13 9 7 7 8 5 5 8 8 4 1 5 7 8 5 5 11 18 22 17 10 8 11 17 21 21 16 15 14 6 7 11 9 8 9 13 20 26 27 28 29 28 28 28 28 30
Wind_Direction
219 222 224 223 226 221 203 201 202 204 206 206 203 203 202 198 198 198 197 196 192 189 187 184 177 175 176 168 164 159 159 166 167 176 189 195 192 189 184 171 175 185 187 188 189 195 196 196 197 206 221 218 213 238 257 19 17 11 207 235 225 185 131 102 65 21 317 3 13 180 211 221 193 185 194 200 201 210 216 211 220 214 216 222 216 205 186 189
205 211 215 217 222 228 213 198 200 203 203 205 202 200 201 198 199 198 195 196 192 187 187 183 176 176 174 166 162 161 164 171 178 189 194 190 189 190 185 176 177 181 182 186 189 194 193 193 199 206 215 215 210 222 232 291 9 17 248 234 217 110 99 118 75 54 326 345 348 328 212 228 230 184 193 208 199 200 215 212 221 223 220 221 218 207 189 189
194 199 205 210 214 223 223 200 198 202 199 202 203 199 201 201 200 200 196 197 194 187 186 182 175 175 172 168 169 170 175 178 189 200 197 187 188 188 184 182 184 182 179 181 183 191 197 195 198 196 190 196 200 196 212 241 323 12 276 240 164 98 121 162 150 103 3 336 332 340 211 225 239 208 198 220 201 198 222 215 210 219 220 215 209 201 191 191
207 205 207 214 215 217 225 209 198 201 196 197 203 199 200 202 199 200 199 197 194 188 185 181 176 174 172 172 177 181 179 179 201 204 195 189 190 186 187 189 188 187 184 182 179 187 197 190 187 184 176 175 177 178 192 202 210 209 262 275 110 134 163 153 170 180 351 339 331 339 262 230 236 221 209 216 213 216 229 225 219 220 218 211 204 198 192 193
216 220 222 227 227 222 225 224 209 201 193 192 200 199 198 201 200 199 200 197 192 189 185 180 176 173 172 175 181 182 176 177 213 203 191 190 192 189 191 191 189 188 185 185 180 180 184 178 177 174 163 150 160 171 186 181 188 198 220 4 94 170 184 123 158 319 340 344 318 265 267 260 239 221 213 213 227 239 231 233 234 229 224 215 206 198 193 195
214 222 225 230 233 230 228 230 226 206 194 189 193 198 199 199 199 199 200 196 191 188 184 178 176 174 172 176 180 181 176 167 212 196 187 187 188 185 184 184 185 183 180 180 172 166 169 169 168 163 143 129 168 167 165 173 188 212 191 110 162 200 318 28 321 325 325 303 266 244 267 262 244 230 221 222 232 249 252 247 245 234 230 222 211 203 197 199
209 208 209 222 229 232 231 232 231 224 209 192 186 193 201 198 195 198 198 195 191 187 183 177 175 174 171 174 179 182 189 199 191 189 183 183 184 179 179 180 181 180 178 177 169 163 164 166 163 158 141 113 188 169 146 165 175 205 203 156 191 240 283 327 326 325 322 283 267 271 272 248 236 245 235 232 235 241 246 250 248 237 230 220 214 213 209 208
198 196 202 217 226 231 231 233 235 235 236 202 186 188 199 199 194 194 195 192 190 186 182 177 173 173 171 174 176 182 202 215 175 183 181 179 179 174 178 182 184 185 187 189 184 173 164 166 166 162 150 117 179 159 146 163 173 206 208 158 184 255 280 318 322 322 328 293 278 260 255 246 239 248 252 247 243 241 242 243 243 248 232 217 216 219 218 216
187 198 216 222 223 225 226 230 233 233 238 215 195 191 193 197 195 191 192 191 188 186 181 176 173 173 173 174 174 183 202 202 180 179 180 180 176 172 176 179 180 183 190 198 201 193 176 172 172 167 159 142 157 156 170 188 210 206 200 164 204 268 287 309 311 316 330 308 289 253 251 257 244 248 257 254 251 248 243 241 241 244 244 223 218 220 221 222
187 203 217 220 219 223 225 226 229 230 232 226 205 198 191 193 195 191 190 191 188 186 180 175 173 173 175 175 173 188 193 189 183 178 179 182 178 175 178 178 176 176 183 189 193 192 182 180 177 169 159 151 154 154 173 200 192 165 174 206 247 275 284 292 281 285 306 303 275 255 272 270 213 226 254 258 252 244 236 236 238 237 242 236 224 222 222 225
191 196 205 210 212 221 227 227 228 228 229 231 212 205 196 189 193 193 190 191 188 184 179 175 174 175 178 176 175 188 182 176 176 177 179 183 181 177 180 181 179 178 180 176 173 177 177 179 175 163 152 155 150 144 171 200 155 125 133 225 235 266 271 269 263 267 276 280 257 250 277 229 171 209 238 244 268 233 223 231 235 233 236 237 232 226 225 227
187 188 193 197 198 206 218 226 226 226 228 229 221 207 196 189 194 195 191 190 188 185 177 172 174 177 177 176 183 184 173 166 161 174 177 182 183 181 181 183 180 179 180 176 171 171 169 167 170 166 150 152 144 142 184 188 166 132 51 249 237 271 260 239 244 247 235 256 230 203 272 233 193 219 234 235 243 231 217 225 230 233 234 234 236 230 228 230
186 183 180 189 198 198 207 218 220 224 227 227 229 210 192 191 195 194 190 189 187 183 175 172 175 176 172 174 188 183 173 167 156 171 177 181 185 184 185 185 182 183 185 185 181 176 173 167 173 172 150 149 136 118 144 140 150 159 91 298 277 279 261 212 239 226 215 244 175 158 270 243 203 221 228 229 235 229 223 227 230 235 236 236 237 235 233 232
183 182 185 198 207 197 205 215 217 222 224 226 230 223 197 189 194 195 189 187 187 181 173 172 174 174 171 173 185 183 177 175 168 171 177 182 185 183 185 187 184 187 190 195 194 186 184 179 176 165 149 148 134 118 113 105 135 158 124 214 263 260 230 80 236 197 204 216 168 173 257 257 239 230 224 229 233 229 225 230 236 237 239 239 238 238 237 236
185 182 189 199 198 186 196 209 216 223 224 224 226 230 231 192 194 198 191 188 185 177 172 173 175 174 171 173 184 182 178 181 179 174 177 184 186 181 182 185 184 186 187 193 196 187 180 180 170 150 135 140 138 125 114 113 110 146 184 184 188 232 238 314 254 190 220 179 168 193 251 264 270 275 251 239 231 230 231 230 236 237 238 241 241 241 240 240
190 185 185 190 186 180 182 192 208 220 225 225 223 228 238 191 188 196 192 187 184 176 172 175 178 174 166 171 183 182 179 182 182 176 177 185 189 183 179 182 182 184 183 182 186 180 175 170 156 143 133 139 148 141 135 153 155 184 230 206 168 206 232 293 134 91 333 140 181 215 258 297 268 300 317 251 223 224 231 234 235 237 238 240 241 242 242 243
190 187 185 184 178 172 172 176 191 207 218 225 224 226 232 197 179 191 192 185 181 177 175 178 180 176 168 169 177 184 184 181 180 177 177 185 191 186 180 178 178 182 177 173 177 172 167 155 144 146 142 149 170 162 157 193 206 181 209 212 184 204 199 193 168 83 90 180 209 219 242 263 264 293 326 240 214 222 231 239 240 242 242 243 245 244 245 245
187 188 185 183 181 174 172 170 173 192 206 212 218 225 230 223 174 181 185 180 174 173 177 181 178 173 185 184 181 187 186 179 176 176 174 181 189 187 181 176 175 176 167 163 167 163 158 147 147 157 153 172 169 168 187 209 204 181 180 188 190 203 205 212 205 105 109 180 221 221 236 257 265 273 272 255 243 241 241 249 249 249 246 244 246 246 245 246
185 189 188 186 187 181 181 181 177 187 197 203 210 214 225 227 194 179 175 170 167 169 175 177 175 182 200 185 184 185 183 178 173 174 175 176 182 185 182 176 172 168 158 153 163 163 154 137 162 177 168 175 169 183 202 211 198 180 175 181 183 192 208 216 194 105 17 220 231 234 241 255 261 264 265 257 249 250 253 259 259 256 253 248 248 248 246 246
183 188 190 189 184 178 180 185 186 195 199 206 210 206 216 209 210 211 173 167 172 176 175 175 178 183 161 168 175 177 175 176 175 173 176 175 177 178 174 170 165 162 161 154 158 168 163 157 189 188 173 175 181 191 196 164 163 172 169 180 187 204 210 187 165 116 128 257 244 237 246 256 258 260 263 259 252 253 249 252 256 255 255 253 252 254 253 251
183 186 190 189 183 180 180 180 187 196 200 206 209 205 213 192 189 310 176 170 177 181 176 176 178 167 145 165 173 172 164 166 175 173 174 174 173 169 164 164 159 164 174 144 131 156 176 191 197 184 181 183 187 189 179 153 169 177 178 180 186 215 218 150 140 115 142 253 250 226 254 259 258 259 261 258 249 252 249 245 249 253 255 256 256 257 259 260
183 187 189 187 183 182 182 182 186 193 197 201 206 209 216 215 210 247 314 172 179 187 183 177 178 155 156 169 175 173 159 147 164 170 171 169 171 169 160 165 159 153 166 135 124 155 190 209 183 174 177 175 176 176 176 180 185 189 181 186 193 193 214 154 132 112 156 240 261 240 267 265 263 262 260 257 252 252 251 248 250 253 255 258 260 260 260 262
183 188 189 187 186 183 182 181 175 176 182 187 196 205 213 222 221 228 301 352 178 187 183 177 178 153 155 165 175 174 160 143 157 167 170 167 170 173 162 165 158 145 162 156 153 166 187 201 171 165 164 157 166 180 183 183 184 195 185 191 198 152 187 220 156 131 154 245 290 291 282 271 262 262 256 249 250 253 252 253 255 254 254 258 260 262 261 260
181 186 189 187 187 186 184 175 166 169 176 182 188 196 206 214 220 225 258 350 205 188 180 178 175 161 158 164 173 172 159 156 163 167 172 168 165 169 164 163 150 145 171 171 166 165 151 157 159 162 170 167 170 179 183 182 181 202 201 203 198 162 194 229 78 141 192 174 314 301 284 269 243 242 247 237 234 248 250 249 253 252 254 258 258 260 260 259
175 182 186 185 185 188 182 171 173 182 184 187 189 194 206 208 211 218 202 359 314 181 177 179 171 164 162 162 169 166 154 159 167 169 173 170 164 160 159 162 156 161 177 167 162 169 150 150 155 159 171 171 170 179 186 186 184 203 213 218 212 184 185 155 87 302 244 207 52 342 277 268 219 220 242 234 221 247 246 235 246 252 254 254 255 259 261 260
171 178 181 181 183 184 178 169 174 185 180 183 189 194 205 207 207 211 188 30 308 175 171 175 170 168 166 160 161 161 156 160 170 171 171 173 172 161 149 162 174 171 167 158 161 173 145 160 161 158 165 169 174 187 187 185 193 206 199 204 207 190 177 162 143 221 255 253 59 46 266 276 278 234 239 227 233 259 254 236 243 251 253 251 252 258 261 262
164 169 173 177 181 181 177 171 173 179 177 172 174 181 193 201 201 195 168 355 261 181 163 167 170 170 165 160 159 160 159 152 160 172 172 171 174 168 159 166 171 158 154 147 169 170 128 155 165 158 156 168 186 192 185 187 199 206 157 170 178 182 184 177 167 215 276 324 297 145 252 280 282 259 226 203 238 261 261 255 247 250 256 253 253 256 259 261
158 158 164 171 176 180 180 177 174 178 183 173 164 164 167 177 178 163 147 277 194 150 156 161 167 165 161 161 162 151 137 148 149 174 174 167 167 171 175 177 157 147 156 162 180 180 126 159 169 163 162 183 194 179 171 184 200 33 119 156 167 173 173 159 169 214 8 338 264 180 130 268 273 257 189 179 235 246 251 252 239 239 251 253 254 256 257 259
157 155 160 167 172 175 179 182 180 181 189 183 171 164 146 144 148 140 158 248 141 102 145 157 163 159 154 159 163 138 134 147 139 162 171 167 165 168 166 169 153 139 153 184 160 142 149 176 175 170 179 193 170 139 167 187 195 104 125 118 111 109 96 110 184 144 76 265 258 200 159 247 278 266 225 190 222 230 237 248 240 237 246 250 252 254 257 258
156 157 160 165 170 174 173 176 180 183 187 179 174 172 153 131 126 130 198 200 123 51 156 158 162 156 150 151 162 146 138 137 137 151 164 160 158 148 117 136 139 131 138 42 91 108 63 166 178 179 187 152 110 94 154 174 142 124 129 111 95 90 84 83 47 75 186 253 245 186 176 224 273 273 231 207 222 228 228 240 243 241 246 249 249 249 252 254
152 160 165 164 166 172 169 165 172 182 187 179 170 167 160 137 121 177 184 140 95 203 189 157 157 157 153 147 151 154 140 124 142 147 151 148 153 142 125 126 116 122 145 121 119 81 79 147 178 179 146 126 114 98 70 126 140 137 138 135 121 109 122 143 93 124 234 246 186 156 171 225 239 244 268 282 320 268 241 240 241 238 241 245 245 244 247 252
154 158 166 167 167 168 166 161 165 176 181 173 162 160 156 138 202 204 161 123 127 195 198 167 161 160 157 151 149 154 141 138 152 153 156 160 162 158 154 163 154 142 177 177 152 115 118 147 119 119 160 154 142 139 106 123 159 162 147 150 147 127 148 203 192 202 237 228 112 94 109 240 246 257 276 273 267 251 243 242 244 243 242 243 243 246 249 254
164 161 162 167 170 171 169 160 161 171 168 159 155 157 154 165 191 176 149 158 147 158 168 178 168 160 159 155 147 145 138 146 158 158 159 158 160 169 166 164 164 156 175 161 137 129 133 348 232 164 177 190 176 163 160 162 177 179 163 167 171 150 175 207 196 210 239 207 122 87 135 256 271 276 251 256 259 252 244 245 250 253 255 256 257 263 267 268
170 166 164 166 167 170 175 170 166 169 159 152 152 159 171 189 176 126 144 184 70 110 156 171 168 166 166 160 153 149 138 151 160 158 158 155 160 175 166 170 183 176 110 139 139 161 163 201 199 181 159 181 190 183 162 148 163 185 179 188 200 182 201 208 191 200 203 114 128 143 191 249 268 39 269 268 284 284 269 256 258 260 263 270 274 275 277 279
171 171 169 168 164 164 173 177 178 180 162 152 150 172 184 183 170 147 159 173 186 153 162 170 170 171 168 155 157 155 124 159 161 157 164 164 170 177 170 183 191 173 139 155 165 175 179 180 178 158 147 171 180 167 150 149 166 189 168 186 223 223 185 153 220 194 126 92 184 184 227 259 297 316 285 265 265 271 266 260 260 262 264 270 274 275 278 282
177 177 174 171 168 165 169 171 174 186 177 162 155 200 188 178 148 169 156 154 174 157 156 175 181 176 167 155 165 158 75 148 158 156 170 170 174 180 174 181 187 179 167 160 135 176 185 169 26 37 131 174 167 141 159 169 159 156 175 192 208 24 73 134 105 54 87 242 216 186 243 274 297 285 270 252 246 254 256 254 254 259 262 262 265 271 280 287
184 180 181 177 169 167 171 167 163 176 179 172 197 204 171 11 169 164 136 143 163 157 158 176 185 174 160 154 168 155 126 137 158 156 164 173 180 180 177 182 188 189 183 161 132 201 168 125 18 51 133 171 156 141 169 201 159 151 188 178 138 32 345 212 195 126 184 238 235 193 240 256 252 255 253 238 250 255 251 238 230 245 254 256 263 276 280 278
186 174 181 180 170 168 173 169 163 167 167 165 211 214 149 127 184 186 315 20 152 163 166 174 176 162 165 161 163 158 147 149 166 159 157 176 186 179 178 182 191 194 186 165 157 173 150 120 70 333 125 140 155 155 174 221 230 191 182 160 151 214 211 190 198 180 189 233 255 213 238 247 226 221 215 210 229 249 246 230 222 227 231 248 267 279 276 268
172 158 169 178 173 170 171 172 168 163 157 169 209 213 172 166 186 187 230 316 162 175 176 177 155 107 190 173 157 164 163 161 165 162 166 183 181 180 182 176 181 189 185 179 177 159 155 139 125 171 132 128 174 193 187 189 195 327 183 174 186 293 203 184 190 189 190 215 240 233 236 236 210 201 210 223 232 239 236 234 236 233 228 249 272 281 281 280
151 131 104 163 169 169 165 166 166 160 162 198 205 207 174 166 182 189 200 217 293 202 188 191 142 133 185 188 167 173 170 160 164 168 173 177 158 171 185 181 171 177 176 177 174 153 154 180 138 127 153 173 185 207 198 181 171 177 190 187 190 190 185 213 200 205 220 209 223 251 250 227 190 186 203 220 237 241 238 245 252 260 270 273 284 290 288 287
137 116 53 144 160 164 159 154 161 168 186 209 210 217 182 149 159 182 193 199 213 333 349 227 183 152 163 174 183 187 166 154 168 176 165 171 169 176 189 184 166 162 162 156 171 169 166 166 142 139 175 187 184 254 236 184 182 189 194 194 195 185 167 196 201 179 207 228 208 254 270 237 160 172 206 217 233 237 235 245 253 261 266 269 285 289 284 284
136 119 109 143 155 158 153 147 171 184 197 210 209 210 183 151 163 175 179 192 203 354 11 331 227 183 178 179 185 184 167 160 173 181 182 187 191 186 181 176 159 155 163 158 160 158 72 107 122 130 172 176 87 30 358 291 220 211 224 212 201 197 190 200 213 168 162 219 82 49 287 251 157 168 207 212 229 245 241 242 251 253 248 255 277 274 263 283
141 125 126 153 161 159 153 146 182 182 214 219 214 215 202 177 165 165 169 189 193 134 30 269 187 178 229 201 187 183 172 168 181 186 182 185 185 147 165 170 158 155 167 154 147 159 135 126 111 102 114 52 48 86 46 13 303 221 234 218 199 211 205 206 297 155 168 195 166 204 271 247 156 158 212 228 249 257 253 249 259 268 264 257 253 242 234 244
152 152 144 162 167 164 158 146 173 190 214 198 205 219 215 227 199 170 170 183 183 149 172 243 200 181 225 209 191 193 181 172 193 198 176 163 163 143 161 166 160 165 182 171 166 176 168 143 136 132 135 169 187 181 196 200 204 217 213 168 196 213 188 97 8 152 212 206 180 210 255 239 138 91 221 238 254 261 263 266 261 260 262 248 223 214 203 153
150 165 174 179 176 177 189 201 174 190 200 182 193 204 200 221 218 202 192 182 186 181 175 237 220 179 177 210 200 199 196 183 185 191 156 126 142 152 164 167 166 174 184 169 161 162 159 162 162 155 158 181 192 194 196 180 170 203 170 156 195 202 188 195 207 209 229 203 182 207 233 200 84 85 248 243 256 270 248 197 213 217 228 233 215 207 194 162
152 170 188 191 190 195 220 227 193 190 184 180 197 201 194 212 219 207 201 192 193 194 195 254 240 173 177 203 208 200 203 223 94 165 154 140 138 173 170 171 174 176 171 156 154 151 137 180 186 191 190 192 193 166 119 120 142 182 188 181 193 198 198 202 207 223 222 182 201 217 229 339 126 167 219 230 220 251 221 170 204 227 223 221 213 206 192 170
160 172 172 172 196 212 230 234 215 202 181 181 185 182 192 208 221 205 204 204 191 188 200 233 224 212 192 188 202 205 194 160 105 161 156 140 101 93 167 172 177 174 161 151 156 150 112 191 195 205 205 209 360 135 133 135 163 184 181 184 193 193 194 196 212 223 193 152 234 221 198 252 230 170 196 222 192 222 225 197 227 241 209 192 201 209 199 182
178 194 185 175 169 196 207 212 213 207 193 188 187 178 188 200 207 197 199 209 196 185 193 211 212 229 219 186 190 200 179 152 152 161 149 140 128 120 159 176 181 170 158 156 168 161 156 196 195 194 187 58 20 150 156 155 172 181 179 186 190 188 191 200 218 222 182 195 244 192 164 228 225 173 193 217 202 225 229 203 208 206 196 192 202 221 217 204
189 200 189 187 186 185 196 201 203 204 202 194 192 193 190 195 203 206 198 195 200 194 191 202 209 219 225 205 191 188 177 172 176 171 163 159 155 149 155 175 189 176 167 169 181 173 172 190 184 171 157 90 40 159 177 169 168 179 187 191 186 187 196 206 220 221 198 224 253 230 200 244 228 183 197 212 219 232 237 226 221 211 213 222 231 234 229 223
193 193 184 195 208 202 201 204 200 204 208 202 202 203 197 194 200 210 206 185 189 189 189 207 213 203 211 213 202 201 196 186 181 179 171 160 161 168 171 175 179 176 176 177 175 183 192 178 158 156 153 76 39 33 187 166 166 182 193 190 182 191 206 215 225 221 207 242 257 252 261 265 220 177 195 213 224 244 259 255 257 260 262 262 250 238 231 233
199 198 194 202 218 208 210 212 201 204 208 204 207 205 201 202 202 207 210 201 199 186 182 203 213 201 201 205 206 214 208 198 192 182 173 170 172 175 175 170 163 165 176 180 171 184 198 168 135 158 181 208 186 142 133 119 130 175 198 196 193 198 207 214 219 209 206 231 241 238 251 258 184 155 179 203 215 238 251 252 256 258 258 257 251 245 245 248
206 204 204 212 228 213 211 218 212 213 209 200 205 205 202 205 202 201 208 212 212 204 195 199 201 196 204 207 210 215 208 204 205 183 176 176 171 164 151 153 164 169 168 165 164 175 176 161 153 173 186 195 148 142 137 116 115 196 216 207 199 197 199 208 218 216 215 221 227 227 236 233 124 138 163 181 193 214 232 239 242 246 247 249 250 252 256 259